Theta_e
342 343 346 345 343 341 338 338 337 337 337 336 335 336 336 335 335 334 333 332 334 334 334 336 337 338 337 337 338 339 337 336 335 332 332 332 332 332 330 330 328 327 323 322 323 323 324 324 323 321 323 324 325 327 329 330 331 329 332 333 333 333 331
340 343 342 341 342 340 339 339 338 337 336 335 334 334 334 333 333 332 332 333 335 335 336 336 335 335 337 337 337 336 335 334 333 334 331 332 331 331 330 330 327 325 324 323 323 324 324 322 322 321 323 325 326 327 326 330 331 331 331 332 331 329 330
340 342 339 340 340 339 338 337 337 336 335 335 335 333 332 332 332 332 332 332 334 334 335 335 335 335 335 335 334 333 333 332 331 328 327 325 326 326 329 328 325 322 322 322 323 321 321 322 322 324 323 323 322 325 328 329 331 330 331 331 330 328 327
341 339 339 341 339 337 337 337 337 335 336 336 334 333 332 333 334 332 332 332 333 334 333 334 334 333 333 332 331 331 330 329 329 327 326 327 326 327 326 324 324 324 322 321 320 320 319 320 322 323 323 322 324 326 329 329 329 330 330 329 327 327 326
339 339 339 338 335 333 335 336 337 336 335 335 335 334 333 333 331 331 331 333 334 334 334 333 333 332 332 332 331 330 328 326 326 326 326 327 326 325 323 322 321 320 320 321 320 319 319 321 321 322 321 324 324 327 327 328 329 329 329 328 326 325 322
336 336 339 339 336 335 336 337 338 337 336 334 334 334 332 331 330 330 332 333 334 334 333 332 332 332 331 331 330 328 327 326 326 326 325 324 324 321 321 320 320 321 318 318 320 319 318 320 321 322 321 322 322 323 324 325 325 326 325 323 323 322 321
337 338 340 339 336 337 336 336 337 338 336 336 335 333 331 330 331 332 331 329 329 330 329 330 330 331 330 329 326 326 324 324 324 324 325 323 322 320 320 321 321 319 319 320 320 319 318 320 322 322 322 323 324 323 324 325 323 321 322 322 322 322 322
339 338 340 338 337 337 337 337 337 336 334 334 333 331 330 332 333 332 329 327 328 329 329 328 328 331 329 327 325 324 323 324 324 324 324 323 322 320 319 319 319 320 321 319 320 319 319 320 321 322 321 322 324 324 323 324 323 321 321 320 320 319 316
339 340 340 338 335 336 337 337 336 335 332 332 333 332 333 334 332 329 328 327 328 328 328 329 328 328 328 325 324 323 324 324 323 322 322 322 322 321 319 318 319 321 320 320 319 318 319 320 321 323 324 324 324 324 322 323 322 321 321 320 319 318 316
338 339 339 337 336 336 335 335 334 333 332 332 332 333 332 333 332 330 328 328 328 328 329 329 327 327 327 324 323 322 321 321 322 322 322 320 320 320 320 320 320 321 320 322 321 318 319 322 323 323 323 322 323 322 324 322 320 319 320 319 319 318 317
336 336 336 336 335 333 332 333 332 332 333 333 333 333 333 332 333 332 329 329 329 329 328 327 328 326 325 325 323 322 322 321 322 322 321 321 320 320 320 320 319 319 319 321 321 321 321 321 322 323 322 320 320 320 322 322 321 320 318 318 318 318 317
334 335 334 335 333 331 330 331 332 332 332 332 331 332 333 333 332 330 329 330 329 328 328 326 326 325 324 323 323 323 323 322 322 322 322 321 320 320 320 320 320 320 318 322 322 323 321 321 321 320 320 320 319 321 321 323 321 321 320 319 318 317 317
335 335 333 333 332 332 331 331 331 331 331 331 333 333 333 333 330 329 329 330 329 329 328 327 326 326 324 322 322 324 323 322 322 321 321 320 321 321 321 320 319 319 320 322 323 322 322 320 321 320 319 320 320 320 322 323 322 321 320 319 319 318 317
334 334 333 333 333 331 329 329 330 330 331 332 332 332 332 332 330 330 329 329 330 329 327 326 326 325 324 324 323 324 321 322 321 321 322 322 322 322 321 320 320 320 322 322 323 321 321 321 319 320 321 320 321 322 323 322 321 322 321 320 319 318 317
332 332 331 330 331 331 330 329 330 331 331 332 332 331 331 330 329 330 331 330 330 327 327 327 326 325 323 324 323 322 323 323 322 322 323 323 322 322 321 321 322 322 323 322 322 322 323 322 321 320 320 320 321 322 321 320 319 320 321 320 319 319 318
329 329 329 329 330 331 331 330 329 329 332 333 332 331 331 330 330 330 329 329 328 327 328 327 325 325 324 322 322 323 323 323 324 323 323 322 321 322 322 322 323 323 323 322 322 324 324 324 323 321 320 319 320 320 320 318 317 319 319 320 321 321 317
329 328 330 330 330 331 330 328 328 330 332 332 331 331 331 331 331 329 329 328 328 328 329 327 325 324 322 322 323 324 324 323 323 323 322 322 322 322 322 323 323 323 323 322 323 323 325 323 323 323 322 320 320 319 320 318 316 317 317 318 319 320 320
327 327 327 329 330 330 329 328 328 329 331 331 330 331 331 330 329 329 327 327 327 327 327 325 325 324 323 323 324 324 324 322 323 324 322 322 323 323 323 323 324 323 322 322 323 323 324 323 323 323 323 322 322 321 320 320 316 315 315 316 317 317 321
328 327 327 329 329 329 329 329 330 331 332 331 331 331 331 331 329 327 327 326 325 326 326 325 324 324 323 325 325 324 324 324 325 324 323 323 324 324 324 324 324 323 324 323 324 324 323 323 322 323 323 323 323 322 322 321 317 316 314 314 314 315 320
329 329 330 330 330 330 330 330 331 332 332 332 332 332 332 331 329 328 327 327 327 326 325 323 323 324 325 325 324 325 325 324 324 324 323 324 323 324 324 324 323 323 324 324 324 323 323 322 322 322 323 322 322 323 322 322 320 317 315 314 314 315 319
330 329 329 330 330 330 330 331 332 332 332 330 329 330 329 329 328 328 327 326 325 325 324 324 323 324 324 325 326 325 326 325 323 323 324 325 325 325 324 324 324 324 324 323 323 323 323 322 322 323 323 323 322 321 321 321 318 317 315 315 315 315 322
330 329 329 331 330 330 331 331 331 331 330 329 328 329 329 328 328 327 327 327 325 325 324 323 322 323 323 324 325 325 326 324 324 324 325 325 325 324 324 324 324 324 324 323 323 323 323 323 324 322 323 323 323 322 321 322 321 318 317 316 316 316 321
331 330 332 331 330 330 332 332 332 330 330 329 329 328 328 329 328 327 326 325 324 324 322 322 322 321 322 323 325 326 326 325 324 323 325 324 324 324 324 324 324 324 325 323 323 322 322 323 323 324 323 323 323 322 322 321 324 321 320 318 316 319 320
332 332 332 331 330 329 330 331 331 330 329 328 328 329 328 327 327 327 326 325 324 324 321 321 320 321 322 322 324 326 326 325 324 323 324 324 324 324 324 324 325 324 325 323 322 322 322 323 322 323 324 322 322 322 321 321 324 322 320 320 318 318 320
331 331 331 330 328 328 329 330 330 329 328 327 327 328 328 328 327 325 325 324 324 323 322 320 321 320 320 323 324 325 324 324 324 323 324 324 324 325 324 324 324 325 325 324 324 323 324 323 323 322 323 324 323 321 323 323 325 321 320 320 319 320 321
331 332 331 330 331 331 331 331 328 326 325 324 326 325 327 326 325 325 324 324 323 322 321 321 321 323 324 324 324 324 324 324 324 325 324 324 325 325 325 325 325 325 324 324 324 323 323 323 323 322 323 323 324 322 323 325 324 324 319 319 319 317 320
333 333 330 329 329 331 329 328 326 323 323 324 324 324 325 325 324 323 323 323 322 322 322 324 324 324 324 324 324 324 324 324 325 324 325 326 325 326 325 325 325 324 324 323 324 323 322 323 323 322 322 323 323 323 323 323 324 324 319 319 320 319 319
332 331 331 331 331 330 328 326 325 324 322 323 322 323 325 324 323 323 323 322 322 323 325 325 326 325 325 325 325 325 325 325 326 327 326 326 326 325 324 325 326 325 324 323 323 323 323 323 323 322 322 323 323 323 323 323 323 324 324 318 318 318 316
329 329 329 329 328 330 327 324 322 320 321 321 322 324 325 325 323 322 322 322 323 324 325 325 325 325 324 325 324 325 325 325 325 325 324 325 326 326 324 323 325 325 325 323 323 322 322 322 322 322 321 322 322 323 325 328 328 325 327 321 316 315 318
331 331 330 330 330 328 326 323 321 321 320 321 323 324 325 324 322 321 321 322 324 325 325 325 324 325 324 324 324 324 324 325 325 326 325 325 326 326 325 325 324 324 323 323 323 321 322 322 322 321 321 320 320 322 323 327 330 327 325 326 316 315 314
331 331 331 330 328 327 325 321 321 321 321 322 324 325 326 324 322 322 321 323 325 325 324 324 324 323 323 324 325 325 325 324 325 325 325 326 325 325 324 324 324 323 324 324 323 322 321 322 321 321 320 321 321 322 323 325 327 328 327 325 326 316 313
331 331 331 330 329 326 323 322 322 322 322 323 324 325 326 325 323 322 323 324 325 325 325 324 324 324 324 325 326 326 326 325 325 325 326 325 326 325 324 324 323 323 323 323 322 322 322 321 320 319 321 319 321 322 323 324 327 327 328 325 325 322 315
330 330 329 328 328 325 322 322 320 321 322 322 324 325 325 326 323 324 325 325 323 324 326 326 324 324 325 325 324 326 326 326 325 325 326 326 325 325 324 324 324 324 323 323 321 322 321 321 320 320 319 319 320 320 321 322 323 326 326 327 325 325 325
330 329 330 329 327 324 323 321 320 321 322 323 324 325 325 325 324 324 324 323 322 323 325 325 324 322 324 322 324 324 324 324 323 323 323 325 326 323 322 324 324 323 322 322 322 321 320 321 320 319 319 319 318 319 319 318 320 321 322 322 322 323 322
330 330 329 327 325 324 322 322 321 322 323 323 326 326 325 325 326 326 324 322 323 325 323 324 324 324 322 323 322 323 325 323 325 325 324 324 326 325 326 324 323 324 324 325 326 325 324 322 321 321 320 319 320 318 318 319 318 323 317 327 313 323 324
330 329 327 326 324 323 323 323 323 322 323 324 326 326 326 325 325 327 324 324 325 326 324 324 323 323 323 323 322 323 322 324 323 324 324 324 323 325 325 325 324 323 325 324 329 326 318 316 325 327 327 324 322 323 321 319 324 313 305 304 304 304 303
329 328 325 324 322 322 323 323 324 324 325 325 326 326 326 325 324 326 325 326 327 326 326 325 323 322 322 323 322 322 323 322 324 324 326 325 324 324 323 323 331 308 309 317 329 320 310 305 306 308 312 323 324 324 319 318 314 307 304 302 301 301 300
329 327 324 322 321 323 323 323 324 323 324 326 325 325 326 324 324 326 326 328 329 327 327 326 324 323 323 324 324 324 324 324 325 325 324 324 324 324 323 322 321 328 311 303 310 311 305 303 301 301 302 305 312 324 328 320 304 301 301 301 300 299 298
Wind_Speed
17 17 14 15 17 16 15 13 14 13 10 8 8 9 8 8 9 9 10 9 10 10 8 7 7 6 7 5 5 5 5 5 4 5 5 5 4 5 5 5 5 5 6 6 5 6 6 8 10 10 9 8 8 8 6 6 6 5 6 6 7 6 7
15 14 14 15 16 15 14 14 12 12 11 10 11 10 9 10 9 9 9 9 10 9 8 7 7 7 5 5 5 6 6 6 5 4 4 3 3 3 4 5 5 4 4 6 6 6 7 8 9 9 9 8 7 6 7 6 6 7 6 7 7 7 7
13 14 14 14 15 13 14 11 13 13 11 11 10 11 11 10 9 10 10 9 9 8 8 8 8 6 5 5 6 6 5 4 4 5 5 5 6 5 5 4 4 5 5 6 6 7 8 8 8 8 8 6 7 7 6 6 7 7 7 6 6 7 8
14 16 17 18 16 16 17 17 19 16 11 13 13 13 13 13 9 8 9 9 9 9 9 8 7 6 6 6 6 5 5 6 7 6 5 5 5 4 4 4 4 5 6 6 7 7 7 7 8 7 7 7 7 7 7 7 8 8 8 8 7 7 7
15 17 17 17 16 14 14 15 16 14 15 15 15 14 14 12 11 9 9 9 9 10 9 8 6 6 5 5 4 5 6 7 6 5 4 4 5 4 4 5 6 6 6 7 7 7 7 8 7 7 7 6 6 6 7 7 8 8 7 8 8 8 7
17 17 17 16 13 14 15 15 14 15 15 15 15 14 13 13 11 11 9 9 9 8 7 8 7 6 6 6 5 6 6 6 5 5 5 4 5 5 6 7 6 6 7 8 7 7 8 7 8 8 8 7 8 8 8 8 8 8 8 8 8 8 8
16 16 16 13 14 15 15 14 13 14 15 15 14 13 12 12 12 10 9 10 10 10 9 8 7 7 6 6 6 6 7 7 6 6 5 6 5 6 6 6 6 5 5 6 7 7 7 6 8 7 7 8 7 8 8 9 9 8 8 9 9 7 7
15 15 14 14 14 15 15 14 14 15 14 14 13 13 13 11 10 9 9 9 10 9 8 8 7 6 6 6 6 7 7 7 6 6 5 5 5 6 6 7 6 6 6 7 7 7 7 7 8 7 8 8 8 8 9 8 9 9 9 9 9 9 8
14 14 14 14 14 14 15 14 15 15 15 15 14 13 13 11 9 9 9 9 8 8 8 7 7 7 6 7 7 7 7 6 6 7 7 6 5 6 6 7 7 7 8 8 7 8 7 8 8 7 7 7 8 8 8 9 8 7 8 8 9 9 10
13 13 12 14 13 13 13 14 15 14 14 14 14 14 13 10 9 9 8 9 9 8 7 7 7 7 7 7 7 8 8 8 7 7 7 7 7 7 6 6 6 6 8 8 8 7 7 7 8 7 7 7 7 8 8 8 9 9 8 8 9 9 9
11 11 12 14 15 15 15 14 14 14 15 14 13 12 11 10 9 9 9 9 9 8 8 8 6 7 7 6 7 7 7 8 7 7 7 7 6 7 6 6 7 7 8 8 8 8 6 5 5 6 7 7 8 8 8 8 9 9 10 9 9 9 9
12 13 14 14 16 16 16 15 14 15 14 12 12 12 11 11 9 10 10 9 7 8 8 7 6 7 7 7 7 7 8 7 7 7 7 7 6 6 7 6 7 7 8 8 7 7 7 7 6 6 7 8 9 8 8 8 8 8 8 9 10 9 8
12 13 15 16 16 14 14 13 15 15 14 14 12 12 12 11 10 10 9 9 9 8 7 6 7 6 6 7 7 7 6 6 5 5 6 6 6 5 6 6 7 7 7 6 7 7 6 7 7 7 8 8 9 9 9 8 8 7 7 8 9 10 10
12 14 15 13 15 16 16 16 14 16 15 15 13 14 12 11 9 9 9 9 8 8 7 6 7 6 6 6 6 6 6 5 6 6 6 5 4 4 5 5 6 6 6 6 7 7 7 8 8 7 8 8 9 8 7 8 8 9 9 8 8 8 8
14 14 15 15 15 15 16 16 15 15 16 15 15 14 12 10 9 9 9 9 8 8 7 7 7 7 7 7 6 6 6 6 5 6 5 5 5 4 4 5 5 5 5 5 6 6 7 6 7 7 8 8 8 8 7 7 7 7 8 8 8 7 8
16 16 16 16 16 16 15 15 15 15 15 15 15 15 12 11 11 10 10 9 8 8 8 7 7 6 7 7 6 6 6 5 5 4 5 5 5 4 4 4 4 5 4 4 4 5 4 5 5 6 7 7 8 8 7 7 6 7 9 9 8 7 7
15 16 15 15 15 15 14 14 14 15 15 16 15 13 11 11 11 11 10 9 9 8 8 7 7 7 7 7 7 7 6 6 5 5 5 4 4 4 3 3 3 3 4 3 4 2 3 4 4 5 6 7 7 7 7 6 6 6 7 7 10 8 7
15 15 15 15 15 15 15 14 14 15 15 15 14 13 12 11 11 11 10 9 9 8 8 7 7 7 7 7 7 6 5 5 5 5 4 4 4 3 2 2 2 2 2 3 3 3 4 3 3 4 4 4 5 6 6 6 5 3 5 6 8 9 8
15 15 15 15 15 15 15 14 15 15 14 14 14 12 12 12 12 11 10 9 9 8 8 8 7 7 7 7 7 6 5 5 5 4 4 4 3 3 2 1 1 1 1 2 3 2 2 3 3 4 3 3 3 4 5 5 6 2 3 5 6 9 10
15 15 15 15 16 16 15 13 12 13 15 14 14 12 12 12 11 10 10 9 9 9 8 8 7 7 7 7 7 6 6 5 5 4 3 3 3 2 2 2 1 0 1 1 1 2 2 4 3 3 4 4 4 4 3 4 7 2 1 2 5 8 11
17 16 16 16 16 15 15 15 15 15 15 14 13 12 12 12 11 10 10 9 9 8 7 7 7 7 7 7 7 6 6 5 4 4 4 3 3 3 2 1 1 1 1 1 0 1 3 3 3 3 3 3 4 5 4 4 6 3 1 1 3 8 13
16 16 16 15 16 16 16 16 16 16 14 12 13 13 11 11 10 10 10 9 8 8 7 7 6 6 6 6 7 7 7 6 5 4 2 3 3 3 2 2 1 1 1 2 3 2 2 2 3 3 4 4 3 4 5 3 8 4 4 2 3 9 6
16 16 15 15 15 15 14 14 15 14 13 13 13 12 11 11 10 10 9 9 8 8 7 6 6 6 6 6 6 7 7 6 5 4 4 2 3 3 2 2 2 2 2 3 2 2 3 3 3 3 4 4 4 4 4 3 7 5 5 3 3 7 6
15 14 15 14 13 13 13 14 14 14 13 14 13 12 11 11 10 10 9 9 8 8 7 6 6 6 6 6 7 7 7 6 6 5 4 3 3 2 2 2 1 2 2 3 3 3 3 4 3 3 4 4 5 5 5 5 4 8 6 4 4 6 6
15 15 15 15 16 16 16 16 16 15 14 14 14 12 12 11 11 9 9 8 8 8 7 7 7 7 7 7 7 7 7 6 5 5 4 4 4 3 3 2 1 1 2 2 3 3 3 4 4 4 4 4 5 4 5 5 1 9 6 7 5 5 5
15 15 16 15 17 17 16 16 16 15 15 15 14 14 12 11 10 9 8 8 8 8 8 8 7 6 7 6 6 5 6 5 5 5 5 4 4 3 3 2 2 3 3 3 4 4 4 4 5 5 5 4 4 4 4 4 4 3 9 7 7 6 5
15 17 17 17 17 17 15 15 15 15 15 14 14 13 11 10 9 9 8 8 8 8 8 7 7 7 7 7 6 6 6 5 5 6 5 4 4 3 2 3 3 3 3 4 3 4 5 5 5 5 5 5 4 5 4 4 5 0 10 8 8 8 7
16 16 17 17 17 15 14 15 14 15 15 14 13 12 10 10 9 9 9 8 8 8 7 7 7 6 7 6 6 6 6 5 5 5 5 4 4 3 4 3 3 4 4 4 4 5 5 5 5 5 5 4 5 5 5 4 4 4 9 9 10 8 9
16 17 18 18 16 16 14 14 15 14 15 13 13 11 10 10 10 9 9 8 9 8 8 7 7 7 7 6 6 6 6 6 6 5 4 4 4 4 4 3 4 4 4 4 4 5 5 5 4 5 5 4 4 4 4 4 3 5 3 11 11 11 8
17 17 17 17 17 17 15 14 14 13 14 13 12 11 10 10 10 10 9 10 8 8 8 7 7 7 6 6 6 6 6 6 6 5 4 5 5 5 5 5 4 4 4 4 5 4 5 4 4 4 5 5 5 4 4 4 4 3 5 6 12 11 9
18 18 18 19 17 16 14 14 15 13 13 12 12 10 9 9 10 11 10 10 9 8 8 8 7 7 6 6 6 6 6 6 5 5 5 5 5 5 5 5 5 5 5 5 5 5 5 4 5 4 4 4 5 5 4 4 4 3 3 5 8 10 9
16 16 17 17 16 15 14 14 14 14 13 12 12 10 9 9 10 11 10 9 9 9 8 8 7 7 6 6 6 6 6 6 6 6 6 6 5 5 5 6 5 5 5 4 4 4 4 5 4 4 4 4 4 5 5 4 4 3 2 1 4 8 11
17 17 17 17 16 15 13 15 14 14 14 13 12 11 10 9 9 10 9 9 9 9 8 7 7 6 6 6 6 6 6 6 5 5 6 6 5 5 4 4 4 4 4 4 4 4 4 4 4 4 4 4 3 4 4 4 3 3 2 2 1 1 7
17 16 16 15 15 14 14 14 14 14 13 12 11 10 10 9 8 9 10 10 10 9 8 7 7 7 7 7 6 5 6 6 6 5 3 3 3 3 2 2 3 3 3 3 3 3 3 3 3 3 3 3 4 5 5 5 4 4 4 3 3 2 0
16 16 15 15 14 13 13 13 14 14 13 11 10 9 9 9 8 8 10 9 9 7 8 7 7 6 5 4 4 4 3 3 6 6 4 2 3 3 1 3 3 2 3 2 2 3 3 3 3 2 3 4 5 5 5 5 6 5 4 3 3 3 4
15 15 15 14 13 13 13 13 13 13 12 11 10 9 9 9 8 7 8 8 7 7 7 7 7 7 6 5 5 3 5 4 4 1 2 3 2 2 2 5 6 4 2 1 3 2 2 3 4 4 4 4 3 3 4 5 4 5 2 1 1 2 2
16 14 14 15 14 14 13 13 12 12 11 10 10 9 9 8 9 8 8 8 7 8 8 7 6 6 6 6 6 4 4 3 3 3 3 2 2 3 2 2 7 10 9 7 6 4 6 7 10 11 8 6 5 1 5 5 6 4 2 3 5 4 3
14 14 14 14 13 13 13 12 12 11 11 9 9 9 9 9 9 9 8 7 7 7 7 8 7 6 5 5 5 3 4 4 2 2 2 2 2 3 2 3 2 4 8 11 10 11 10 10 11 12 10 9 10 7 4 7 7 4 4 5 5 6 6
Wind_Direction
163 168 159 149 152 146 140 134 123 117 124 118 111 114 120 123 121 122 120 118 115 118 115 105 100 97 93 90 83 70 54 49 48 38 37 39 25 19 18 25 30 8 360 9 12 7 4 359 356 2 359 358 6 4 9 14 9 24 35 26 27 28 21
162 156 148 153 144 130 128 115 116 128 140 143 137 135 133 130 127 123 121 123 122 120 117 110 103 98 92 82 73 62 61 59 55 56 63 69 42 47 27 30 15 32 21 16 1 8 3 3 7 6 1 8 17 19 25 15 20 29 32 31 29 23 12
155 140 143 148 141 126 124 127 145 157 152 143 136 134 131 128 123 121 123 127 124 118 118 110 102 97 88 86 80 69 63 61 62 52 39 33 33 34 43 32 31 40 21 17 8 5 4 4 16 10 10 16 31 33 26 36 31 29 28 22 29 23 19
142 144 150 148 133 153 157 152 163 162 152 143 138 134 125 115 113 129 132 139 130 124 117 107 106 106 102 91 80 77 74 54 37 41 41 33 36 52 64 64 49 19 30 20 14 13 9 7 19 16 30 33 44 38 39 36 33 29 21 10 17 15 20
140 146 154 157 160 150 146 156 167 153 149 143 132 130 125 125 136 146 145 136 125 120 115 117 115 107 96 85 75 62 48 51 52 49 55 76 82 68 69 60 46 42 29 20 24 23 15 19 15 24 42 40 50 50 43 38 32 25 22 11 7 2 5
149 155 165 165 143 150 151 155 161 153 148 137 133 128 129 133 147 146 134 127 117 111 114 121 118 111 100 87 86 83 80 73 68 61 62 72 80 87 68 56 54 38 39 31 20 25 25 25 31 34 38 46 46 45 34 25 29 21 19 15 13 10 16
158 162 165 148 147 150 141 153 155 146 146 139 133 129 134 145 141 136 137 133 129 131 135 127 120 113 105 106 98 92 85 81 75 69 65 68 80 81 73 63 55 46 40 43 28 20 34 31 46 38 50 50 45 39 37 32 22 25 23 24 15 17 23
160 164 156 139 146 149 148 160 146 137 138 140 136 139 141 139 135 133 134 138 140 141 133 134 123 111 116 110 102 97 93 87 80 78 78 78 63 69 72 64 53 45 31 40 39 32 41 38 53 43 46 48 42 39 40 37 35 27 27 22 19 17 15
157 162 153 139 147 148 148 152 146 139 138 141 140 139 143 138 135 139 143 144 143 143 145 131 115 113 118 115 118 108 96 89 91 95 92 84 78 68 75 77 71 54 47 34 38 46 46 48 55 48 49 48 44 40 41 33 35 41 34 27 20 18 18
149 146 132 135 142 141 142 146 146 140 142 145 149 149 149 137 141 145 149 147 146 145 135 118 123 126 131 138 122 112 107 103 101 95 90 85 80 78 73 73 72 67 62 56 46 52 54 51 53 51 46 51 54 47 42 37 29 30 38 38 29 16 20
140 137 136 141 140 139 140 145 147 147 149 152 149 148 147 145 150 149 151 155 150 139 132 128 131 131 136 123 109 100 96 101 102 97 89 85 82 81 79 80 79 69 61 57 57 54 54 57 52 45 43 50 46 47 42 39 33 25 23 26 33 26 18
145 145 144 134 135 139 146 148 147 146 148 147 148 152 152 152 152 151 150 156 142 139 138 143 132 128 129 128 119 121 116 110 103 95 93 92 92 86 90 87 75 70 69 63 51 56 62 52 45 56 49 36 48 45 40 36 38 31 24 21 20 31 26
152 143 140 140 141 142 144 146 147 145 146 150 150 154 157 156 156 151 156 151 145 142 138 134 122 137 139 128 130 125 123 113 104 104 98 92 84 87 85 80 81 78 73 65 57 60 56 65 62 48 51 48 45 50 41 36 35 30 29 22 21 18 20
143 141 142 141 142 144 148 151 148 150 152 152 152 159 159 157 153 144 157 150 139 142 136 137 139 139 133 127 125 133 124 109 102 92 90 89 87 84 88 91 87 83 77 74 68 57 54 54 59 66 61 56 56 46 43 38 27 23 22 26 25 20 20
150 144 145 147 143 147 148 151 155 155 154 156 158 158 154 148 147 149 157 147 152 142 140 141 144 146 137 136 135 125 118 127 118 105 100 101 100 100 104 106 99 88 77 64 64 62 58 48 50 51 54 63 57 58 52 44 42 27 9 12 25 23 14
149 146 147 147 147 149 150 152 154 158 157 156 155 156 156 152 154 159 156 148 149 144 145 150 154 143 142 142 138 132 126 114 105 111 97 107 105 110 117 110 96 87 83 85 71 68 52 58 47 52 51 49 54 54 57 53 48 25 14 4 350 354 13
152 153 151 150 150 152 152 152 155 159 159 157 158 155 151 153 156 157 152 150 150 150 154 157 152 152 152 149 133 133 140 141 129 118 115 113 118 110 108 114 110 100 94 82 76 70 85 48 50 33 34 30 36 49 57 54 52 26 13 6 358 342 356
150 149 151 153 152 151 151 151 155 159 158 156 155 155 155 154 157 158 155 154 154 154 160 159 156 158 155 149 145 147 153 129 122 126 123 119 123 136 128 124 118 104 77 65 66 44 44 55 46 45 38 44 27 27 47 78 84 41 24 9 350 348 340
152 151 151 152 152 153 153 156 156 158 155 159 162 160 155 153 156 159 156 159 156 156 162 159 162 160 162 156 157 156 148 141 143 133 129 127 133 149 156 161 147 138 94 49 39 36 39 41 39 44 41 29 32 25 25 63 108 96 42 5 347 338 335
155 153 153 153 155 156 156 156 158 155 158 161 162 153 150 155 158 156 157 156 157 162 160 163 162 163 165 166 167 159 157 157 155 147 143 144 145 160 165 185 183 288 42 54 21 19 14 21 18 27 24 26 15 23 10 39 103 120 49 352 340 331 313
156 155 155 157 157 159 158 160 158 157 157 158 153 150 157 159 158 152 157 158 163 162 162 165 162 164 168 174 175 173 170 171 165 167 151 169 178 181 162 188 250 305 331 311 294 28 5 345 3 359 8 9 3 2 357 52 123 168 185 269 319 320 299
155 156 159 158 156 156 158 158 157 155 150 147 154 158 160 155 154 155 157 163 162 162 165 160 162 165 173 175 180 188 180 176 175 169 167 171 175 185 185 194 208 256 293 296 311 346 328 316 323 347 344 346 350 342 347 64 153 182 193 233 280 304 329
157 160 156 154 158 158 158 153 150 146 147 155 158 154 153 151 155 158 159 165 161 163 161 161 159 162 168 167 169 176 180 177 175 169 171 162 180 178 185 198 232 246 279 285 291 300 296 331 327 335 334 333 333 335 330 21 157 181 190 188 255 294 359
154 156 154 154 152 150 152 150 147 149 154 153 152 150 149 156 159 158 165 160 162 160 159 156 148 150 158 161 161 159 162 170 175 171 171 179 174 173 166 213 209 229 265 296 310 314 327 310 312 320 326 327 328 328 333 334 133 175 188 196 194 283 336
157 158 154 151 154 157 159 157 152 151 152 151 150 151 155 158 160 161 164 158 158 159 158 152 152 152 153 153 158 162 164 170 179 175 186 180 183 189 173 213 224 287 289 274 278 272 274 310 314 326 315 340 327 320 304 323 134 172 190 188 187 249 336
157 162 154 154 159 160 154 150 150 156 155 155 153 154 157 159 162 161 157 158 157 158 158 154 158 149 149 153 157 162 168 178 177 186 193 191 195 192 210 221 226 243 248 272 284 311 335 309 307 315 311 316 314 312 322 317 324 159 183 188 190 226 283
159 162 154 157 158 154 149 154 158 158 158 151 153 155 159 163 160 157 157 155 159 158 157 158 156 158 156 164 166 167 169 176 174 186 189 197 196 199 228 231 255 263 271 277 283 296 296 297 299 298 302 307 307 314 316 322 325 92 173 185 192 200 240
157 153 153 157 152 153 154 158 157 157 151 148 156 157 163 163 158 156 155 159 159 156 151 158 157 163 165 171 178 173 179 182 181 190 188 193 209 219 228 239 253 265 272 282 292 294 298 304 301 297 303 302 306 316 312 319 279 308 173 183 187 195 213
154 154 156 155 157 159 157 155 158 157 149 155 158 159 164 163 157 156 158 159 152 149 151 158 163 168 172 178 181 182 184 185 189 196 203 202 216 229 247 250 249 258 269 273 284 292 301 305 307 310 307 310 309 315 320 305 289 259 247 179 189 186 208
153 157 158 160 161 158 159 155 155 150 153 156 156 161 165 164 159 159 161 153 148 151 153 160 163 170 176 179 182 184 187 193 198 212 211 216 223 234 245 254 257 264 269 278 288 297 301 305 307 307 308 322 320 329 331 313 295 225 238 189 183 184 195
160 161 160 162 159 158 159 157 151 153 154 154 160 161 167 166 162 163 161 151 156 158 162 166 169 176 184 185 186 190 191 196 204 206 218 219 229 239 246 254 257 264 266 278 281 289 293 301 306 306 313 315 323 332 333 329 312 328 206 201 181 183 182
158 162 159 157 156 160 159 151 153 155 155 158 161 163 171 169 168 168 161 157 163 169 167 175 174 186 185 186 192 196 197 205 207 220 220 231 236 240 247 258 265 268 275 274 281 287 291 305 306 314 313 328 325 333 335 335 337 338 358 173 193 182 184
159 160 158 161 157 160 158 155 158 160 161 162 165 168 171 173 171 169 165 164 176 173 173 182 184 191 195 198 200 202 212 212 223 215 218 230 238 249 257 258 257 272 275 269 281 289 298 296 315 320 330 344 334 337 346 341 350 352 6 4 339 154 173
158 160 162 156 157 163 158 160 162 162 164 164 168 170 172 171 175 171 175 175 190 171 177 189 198 189 189 195 190 201 196 206 201 236 241 226 247 274 256 246 259 253 256 297 301 307 312 322 330 339 343 350 1 1 352 3 26 14 4 6 360 11 13
162 162 156 155 161 164 161 165 164 165 165 166 169 171 172 174 176 177 180 184 192 173 185 197 204 231 209 198 216 191 214 220 174 207 206 199 233 212 273 302 311 320 322 303 315 316 323 333 333 327 358 358 4 356 5 2 18 34 30 12 20 333 324
158 156 157 158 160 164 161 169 165 167 167 166 171 171 174 174 179 185 185 186 190 188 197 207 213 210 231 212 217 204 197 208 236 166 247 217 219 254 206 205 235 284 295 328 95 94 338 287 280 316 331 329 325 349 331 349 30 91 57 217 223 221 294
157 157 159 160 164 163 167 169 170 169 169 168 172 174 178 178 182 188 194 186 192 197 205 216 221 224 216 217 228 212 263 250 207 165 200 243 238 245 269 242 188 217 227 261 274 247 225 229 246 266 268 266 293 337 171 264 302 297 249 191 212 200 171
157 159 159 164 165 165 168 171 174 174 172 170 174 178 184 186 188 185 194 190 201 204 210 218 224 227 231 228 230 198 232 259 270 265 224 221 254 273 281 279 260 170 219 223 227 240 236 232 236 242 240 233 233 258 263 195 208 228 221 220 198 201 177